User: anonymous   Login
Location: Unspecified
(0.0000°N, 0.0000°E)
Time: 09:28:08
(UTC+00:00)
Language:

Transit 2A - Orbit

View from above orbital plane
View from above orbital plane
View from above satellite
View from above satellite

Ground track
Ground track

The orbit data is extracted from the following two-line orbital elements,

1 00045U 60007A   17053.20944255 -.00000020  00000-0  21873-4 0  9997
2 00045  66.6964 332.5109 0249146 117.9909 244.6643 14.33536839949087
Epoch (UTC): 22 February 2017 05:01:35
Eccentricity: 0.0249146
inclination: 66.6964°
perigee height: 601 km
apogee height: 958 km
right ascension of ascending node: 332.5109°
argument of perigee: 117.9909°
revolutions per day: 14.33536839
mean anomaly at epoch: 244.6643°
orbit number at epoch: 94908

The dashed part of the orbit path shows where the satellite is in the earth's shadow,  

DLR